Location: Newark
(5.8900°S, 42.6378°W)
Time: 08:26:45
(UTC+00:00)

Vanguard 1 Rocket - Pass Details

Date: 19 October 2019
Orbit: 651 x 4225 km, 34.3° (Epoch: 13 November)

Event Time Altitude Azimuth Distance (km) Brightness Sun altitude
Rises 16:39:40 0° 323° (NW) 7,496 12.3 59.0°
Reaches altitude 10° 16:48:38 10° 342° (NNW) 7,036 12.1 56.8°
Maximum altitude 17:02:26 17° 17° (NNE) 6,825 11.9 53.4°
Drops below altitude 10° 17:16:20 10° 50° (NE) 7,185 11.7 50.0°
Sets 17:25:27 0° 69° (ENE) 7,733 11.7 47.8°
